Regional Weather Roundup
Issued by NWS

Home | Current Version | Previous Version | Graphics & Text | Print | Product List | Glossary On
Versions: 1 2 3 4 5 6 7 8 9 10 11 12 13 14 15 16 17 18 19 20 21 22 23 24 25 26 27 28 29 30 31 32 33 34 35 36 37 38 39 40 41 42 43 44 45 46 47 48 49 50
000
ASUS45 KSLC 270210
RWRUT

UTAH REGIONAL WEATHER ROUNDUP
NATIONAL WEATHER SERVICE SALT LAKE CITY UT
800 PM MDT SUN APR 26 2015

UTZ001>011-023>025-270300-

NORTHERN UTAH

CITY           SKY/WX    TMP DP  RH WIND       PRES   REMARKS
BRIGHAM CITY   CLOUDY    53  33  46 N8        30.08R
HILL AFB       CLOUDY    49  33  53 N3        30.08
LOGAN          CLOUDY    48  38  68 W6        30.08R
OGDEN          CLOUDY    52  33  48 N3        30.07R
PROVO AIRPORT  MOCLDY    48  34  57 NW17G29   30.04R
SALT LAKE CITY MOCLDY    50  35  56 SE5       30.07R
VERNAL         CLOUDY    54  29  38 N13       29.91R
WENDOVER       CLEAR     54  16  22 N17       30.09R
HEBER CITY     CLOUDY    45  30  57 NE10G16   30.05R
WEST JORDAN    CLOUDY    46  36  66 N3        30.08R

$$

UTZ012>022-026-027-270300-

SOUTHERN/CENTRAL UTAH

CITY           SKY/WX    TMP DP  RH WIND       PRES   REMARKS
BLANDING       PTCLDY    51  36  57 NW12      29.90R
BRYCE CANYON   MOCLDY    37  24  59 N21G28    30.02R WCI  26
CEDAR CITY     CLOUDY    47  26  44 N16G24    30.01R
DELTA          PTCLDY    48  32  53 N10       30.06R
HANKSVILLE     CLEAR     54  28  37 NW21G28   29.91R
MILFORD        CLEAR     50  22  33 N21G30    30.03R
MOAB/CYNLANDS  PTCLDY    54  39  57 NW16      29.82R
PRICE          CLEAR     46  28  49 NW20G30   29.94R
ST GEORGE      MOCLDY    63  25  23 NE20G25   29.93R
KANAB          CLEAR     50  25  37 N16G30    29.98R

$$

REGIONAL REPORTS     COLORADO/ARIZONA

CITY           SKY/WX    TMP DP  RH WIND       PRES   REMARKS
CRAIG, CO      CLOUDY    44  38  79 N16G25    29.92R
GRAND JUNCTION CLOUDY    49  41  74 NW5       29.86R
RIFLE          CLOUDY    46  40  79 W8        29.88R
MONTROSE       CLOUDY    47  39  74 SE7       29.89R
CORTEZ         CLOUDY    48  39  71 N9        29.82R
PAGE, AZ       CLOUDY    60  25  26 NW13G24   29.85R
GRAND CANYON   CLEAR     45  27  49 N6        29.94R
KINGMAN        CLEAR     61  22  22 N15       29.91R
FLAGSTAFF      PTCLDY    43  31  62 VRB5      29.93R

$$

REGIONAL REPORTS    NEVADA/IDAHO/WYOMING

CITY           SKY/WX    TMP DP  RH WIND       PRES   REMARKS
LAS VEGAS, NV  PTCLDY    70  16  12 NE15G24   29.87R
ELY            CLEAR     45  14  28 N15       30.10R
ELKO           CLEAR     49  19  30 N10       30.17R
POCATELLO, ID  MOCLDY    53  29  39 N7        30.08R
BURLEY         CLEAR     51  21  30 W16G23    30.09R
EVANSTON, WY   CLOUDY    37  31  78 N13       30.09R WCI  29
ROCK SPRINGS   LGT RAIN  39  36  89 NE13      30.03R WCI  31
KEMMERER       CLOUDY    36  30  80 NW21G28   30.06R WCI  24

$$



USA.gov is the U.S. government's official web portal to all federal, state and local government web resources and services.